TimeEST,TemperatureF,Dew PointF,Humidity,Sea Level PressureIn,VisibilityMPH,Wind Direction,Wind SpeedMPH,Gust SpeedMPH,PrecipitationIn,Events,Conditions,WindDirDegrees,DateUTC
12:51 AM,45.0,35.1,68,30.14,10.0,Variable,3.5,-,N/A,,Clear,0,2012-11-21 05:51:00
1:51 AM,45.0,33.1,63,30.15,10.0,NNE,4.6,-,N/A,,Clear,30,2012-11-21 06:51:00
2:51 AM,43.0,30.0,60,30.16,10.0,Calm,Calm,-,N/A,,Clear,0,2012-11-21 07:51:00
3:51 AM,42.1,30.0,62,30.16,10.0,NE,3.5,-,N/A,,Clear,50,2012-11-21 08:51:00
4:51 AM,41.0,32.0,70,30.17,10.0,NE,3.5,-,N/A,,Clear,50,2012-11-21 09:51:00
5:51 AM,41.0,32.0,70,30.19,10.0,NNE,4.6,-,N/A,,Clear,30,2012-11-21 10:51:00
6:51 AM,41.0,28.9,62,30.19,10.0,Variable,4.6,-,N/A,,Clear,0,2012-11-21 11:51:00
7:51 AM,42.1,30.0,62,30.21,10.0,NNE,6.9,-,N/A,,Clear,30,2012-11-21 12:51:00
8:51 AM,44.1,30.9,60,30.21,10.0,NE,8.1,-,N/A,,Clear,50,2012-11-21 13:51:00
9:51 AM,46.9,33.1,59,30.21,10.0,ENE,9.2,-,N/A,,Clear,60,2012-11-21 14:51:00
10:51 AM,48.9,32.0,52,30.21,10.0,NNE,8.1,-,N/A,,Clear,30,2012-11-21 15:51:00
11:51 AM,51.1,33.1,50,30.20,10.0,Variable,4.6,-,N/A,,Clear,0,2012-11-21 16:51:00
12:51 PM,52.0,34.0,50,30.18,10.0,Variable,5.8,-,N/A,,Clear,0,2012-11-21 17:51:00
1:51 PM,52.0,33.1,49,30.17,10.0,Variable,4.6,-,N/A,,Clear,0,2012-11-21 18:51:00
2:51 PM,52.0,30.9,45,30.17,10.0,Calm,Calm,-,N/A,,Clear,0,2012-11-21 19:51:00
3:51 PM,51.1,30.0,44,30.17,10.0,ENE,3.5,-,N/A,,Clear,60,2012-11-21 20:51:00
4:51 PM,50.0,28.0,43,30.19,10.0,NE,4.6,-,N/A,,Clear,50,2012-11-21 21:51:00
5:51 PM,48.0,28.9,48,30.20,10.0,ENE,3.5,-,N/A,,Clear,60,2012-11-21 22:51:00
6:51 PM,46.9,28.0,48,30.22,10.0,ENE,3.5,-,N/A,,Clear,60,2012-11-21 23:51:00
7:51 PM,46.9,30.9,54,30.23,10.0,NE,4.6,-,N/A,,Clear,40,2012-11-22 00:51:00
8:51 PM,46.9,30.9,54,30.24,10.0,ENE,4.6,-,N/A,,Clear,60,2012-11-22 01:51:00
9:51 PM,46.9,32.0,56,30.23,10.0,Variable,3.5,-,N/A,,Clear,0,2012-11-22 02:51:00
10:51 PM,45.0,30.0,56,30.23,10.0,ENE,4.6,-,N/A,,Clear,60,2012-11-22 03:51:00
11:51 PM,44.1,32.0,63,30.23,10.0,ENE,3.5,-,N/A,,Clear,60,2012-11-22 04:51:00